FENGYUN 1C DEB, 31021

Orbit data source: Space-Track

FENGYUN 1C DEB, 31021 is space debris in SSO originally from a launch on Mon, 10 May 1999 UTC launched from the Taiyaun Space Center, China (TSC). Fengyun 1C debris stems from the Chinese weather satellite Fengyun-1C, which was intentionally destroyed by a Chinese anti-satellite missile in 2007. This event dramatically increased the amount of space debris, with thousands of trackable fragments posing hazards to satellites and human spaceflight. The Fengyun 1C debris cloud has become a focal point in discussions about space sustainability and the need for international regulations to prevent the creation of new debris.

Loading next visibility...
Identifier
31021, 1999-025BDP
Orbit
SSO
Country
Flag of CNCN / PRC
Related business
Manufacturer
Unknown
Mission
Spacecraft
Bus & Motor
Unknown
Mass
Unknown
Launch date (UTC)
1999-05-10 (27 years ago)
Launch vehicle
Unknown
Launch site
Taiyaun Space Center, China (TSC)
Object type
Payload
Rocket body
Debris
Shape & HBR
Unknown shape, 0.1 m
Radar Cross Section
Small (<0.1 m²)

Expand to show TLE details & history
Last TLE update: 1 week ago

TLE from 1 week ago
0 FENGYUN 1C DEB
1 31021U 99025BDP 26054.11414102  .00005426  00000-0  43940-3 0  9993
2 31021  98.3475 172.0690 0264659  11.3731 349.3300 14.76631485745001
Epoch: 2026-02-23T02:44Z
TLE epoch observation values (Epoch: 2026-02-23T02:44:21.784Z)
Latitude
-0.00007°
Longitude
-22.03443°
Altitude
460.59 km
Speed
7.735 km/s
True Right ascension
11h 28m 16s
True Declination
0° 00' 00"
Sunlit
Object was in full shadow at epoch
Visualization orbit readout
Latitude
Unknown
Longitude
Unknown
Altitude
Unknown
Speed
Unknown
Apparent Right ascension
Unknown
Apparent Declination
Unknown
Sunlit
N/A
Visualization observer readout
Local Sidereal Time
14:15:36
Azimuth
Unknown
Elevation
Unknown
Doppler factor
Unknown
Orbital elements
Apogee altitude
822.703 km
Perigee altitude
451.377 km
Semi-major axis
7,015.177 km
Eccentricity
0.02647
Inclination
98.3475°
RAAN
172.069°
Arg. of periapsis
11.3731°
True anomaly
348.74964°
Mean anomaly
349.33°
Eccentric anomaly
349.04174°
Mean motion
3.6939 °/min
Orbital period
97.46 mins
BSTAR
0.0004394
Loading maneuver chart data...
Computing Atmospheric mass density...
Loading historical data...
Loading historical data...
Loading historical data...
Loading historical data...
Loading historical data...
Loading historical data...
Loading historical data...

Documentation

Showing up to 5 results
|